Meteo pe oră la Bolshie Lipki

Astăzi, 8 Mai, Sâmbătă

Timp Temperatura Precipitaţii Vânt Presiune Umiditate
00:00 +6°C° 1.7 mm 1 m/s 745 mmHg 92%
01:00 +5°C° 1.7 mm 1 m/s 745 mmHg 95%
02:00 +5°C° 1.7 mm 1 m/s 745 mmHg 97%
03:00 +4°C° 0.6 mm 2 m/s 745 mmHg 97%
04:00 +4°C° 0.6 mm 2 m/s 745 mmHg 96%
05:00 +4°C° 0.6 mm 2 m/s 745 mmHg 96%
06:00 +4°C° 0.1 mm 2 m/s 745 mmHg 95%
07:00 +3°C° 0.1 mm 3 m/s 746 mmHg 95%
08:00 +3°C° 0.1 mm 4 m/s 746 mmHg 94%
09:00 +4°C° 0 mm 4 m/s 747 mmHg 88%
10:00 +5°C° 0 mm 4 m/s 747 mmHg 81%
11:00 +5°C° 0 mm 4 m/s 747 mmHg 75%
12:00 +6°C° 0 mm 4 m/s 747 mmHg 70%
13:00 +6°C° 0 mm 4 m/s 748 mmHg 65%
14:00 +6°C° 0 mm 4 m/s 748 mmHg 60%
15:00 +6°C° 0.1 mm 4 m/s 748 mmHg 62%
16:00 +6°C° 0.1 mm 4 m/s 749 mmHg 64%
17:00 +7°C° 0.1 mm 3 m/s 749 mmHg 66%
18:00 +5°C° 0 mm 3 m/s 749 mmHg 73%
19:00 +4°C° 0 mm 3 m/s 750 mmHg 79%
20:00 +3°C° 0 mm 3 m/s 750 mmHg 86%
21:00 +2°C° 0 mm 3 m/s 751 mmHg 89%
22:00 +2°C° 0 mm 2 m/s 751 mmHg 92%
23:00 +1°C° 0 mm 2 m/s 751 mmHg 95%

Mâine, 9 Mai, Duminică

Timp Temperatura Precipitaţii Vânt Presiune Umiditate
00:00 +1°C° 0 mm 2 m/s 752 mmHg 93%
01:00 0°C° 0 mm 3 m/s 752 mmHg 91%
02:00 -1°C° 0 mm 3 m/s 753 mmHg 89%
03:00 -1°C° 0 mm 3 m/s 753 mmHg 89%
04:00 -1°C° 0 mm 3 m/s 754 mmHg 89%
05:00 -1°C° 0 mm 2 m/s 754 mmHg 90%
06:00 +1°C° 0 mm 3 m/s 755 mmHg 80%
07:00 +3°C° 0 mm 3 m/s 755 mmHg 70%
08:00 +5°C° 0 mm 3 m/s 756 mmHg 60%
09:00 +8°C° 0 mm 3 m/s 756 mmHg 54%
10:00 +8°C° 0 mm 4 m/s 756 mmHg 49%
11:00 +11°C° 0 mm 4 m/s 756 mmHg 44%
12:00 +11°C° 0 mm 4 m/s 757 mmHg 42%
13:00 +12°C° 0 mm 4 m/s 757 mmHg 40%
14:00 +12°C° 0 mm 3 m/s 757 mmHg 38%
15:00 +12°C° 0 mm 3 m/s 757 mmHg 41%
16:00 +12°C° 0 mm 3 m/s 757 mmHg 44%
17:00 +12°C° 0 mm 3 m/s 757 mmHg 47%
18:00 +10°C° 0 mm 2 m/s 758 mmHg 54%
19:00 +9°C° 0 mm 2 m/s 758 mmHg 62%
20:00 +7°C° 0 mm 2 m/s 758 mmHg 69%
21:00 +7°C° 0 mm 2 m/s 758 mmHg 71%
22:00 +5°C° 0 mm 3 m/s 758 mmHg 72%
23:00 +5°C° 0 mm 3 m/s 758 mmHg 74%

Poimâine, 10 Mai, Luni

Timp Temperatura Precipitaţii Vânt Presiune Umiditate
00:00 +5°C° 0 mm 3 m/s 758 mmHg 75%
01:00 +5°C° 0 mm 3 m/s 758 mmHg 76%
02:00 +7°C° 0 mm 3 m/s 758 mmHg 77%
03:00 +7°C° 0.2 mm 3 m/s 758 mmHg 78%
04:00 +6°C° 0.2 mm 4 m/s 758 mmHg 79%
05:00 +6°C° 0.2 mm 4 m/s 758 mmHg 80%
06:00 +7°C° 0 mm 4 m/s 758 mmHg 79%
07:00 +7°C° 0 mm 4 m/s 759 mmHg 77%
08:00 +8°C° 0 mm 4 m/s 759 mmHg 76%
09:00 +11°C° 0 mm 4 m/s 759 mmHg 70%
10:00 +13°C° 0 mm 4 m/s 759 mmHg 64%
11:00 +15°C° 0 mm 5 m/s 760 mmHg 58%
12:00 +17°C° 0 mm 5 m/s 760 mmHg 55%
13:00 +19°C° 0 mm 5 m/s 760 mmHg 53%
14:00 +20°C° 0 mm 5 m/s 760 mmHg 50%
15:00 +20°C° 0 mm 4 m/s 760 mmHg 53%
16:00 +20°C° 0 mm 4 m/s 760 mmHg 56%
17:00 +20°C° 0 mm 4 m/s 760 mmHg 59%
18:00 +18°C° 0 mm 3 m/s 760 mmHg 66%
19:00 +16°C° 0 mm 3 m/s 760 mmHg 73%
20:00 +13°C° 0 mm 3 m/s 760 mmHg 80%
21:00 +13°C° 0 mm 3 m/s 761 mmHg 81%
22:00 +12°C° 0 mm 3 m/s 761 mmHg 83%
23:00 +11°C° 0 mm 3 m/s 761 mmHg 84%

11 Mai, Marţi

Timp Temperatura Precipitaţii Vânt Presiune Umiditate
00:00 +11°C° 0 mm 3 m/s 761 mmHg 85%
01:00 +10°C° 0 mm 3 m/s 762 mmHg 87%
02:00 +9°C° 0 mm 3 m/s 762 mmHg 88%
03:00 +9°C° 0 mm 3 m/s 762 mmHg 87%
04:00 +9°C° 0 mm 3 m/s 762 mmHg 85%
05:00 +9°C° 0 mm 3 m/s 762 mmHg 84%
06:00 +11°C° 0 mm 3 m/s 762 mmHg 76%
07:00 +12°C° 0 mm 4 m/s 762 mmHg 69%
08:00 +14°C° 0 mm 4 m/s 762 mmHg 62%
09:00 +15°C° 0 mm 4 m/s 762 mmHg 58%
10:00 +17°C° 0 mm 5 m/s 762 mmHg 53%
11:00 +19°C° 0 mm 5 m/s 762 mmHg 49%
12:00 +19°C° 0 mm 5 m/s 762 mmHg 47%
13:00 +20°C° 0 mm 5 m/s 762 mmHg 46%
14:00 +20°C° 0 mm 5 m/s 762 mmHg 45%
15:00 +20°C° 0 mm 4 m/s 761 mmHg 48%
16:00 +20°C° 0 mm 4 m/s 761 mmHg 51%
17:00 +20°C° 0 mm 4 m/s 761 mmHg 54%
18:00 +18°C° 0 mm 3 m/s 761 mmHg 63%
19:00 +16°C° 0 mm 3 m/s 761 mmHg 72%
20:00 +14°C° 0 mm 2 m/s 761 mmHg 81%
21:00 +13°C° 0 mm 2 m/s 761 mmHg 83%
22:00 +12°C° 0 mm 2 m/s 761 mmHg 85%
23:00 +12°C° 0 mm 2 m/s 761 mmHg 87%

12 Mai, Miercuri

Timp Temperatura Precipitaţii Vânt Presiune Umiditate
00:00 +10°C° 0 mm 2 m/s 761 mmHg 89%
01:00 +10°C° 0 mm 2 m/s 761 mmHg 91%
02:00 +9°C° 0 mm 2 m/s 761 mmHg 93%
03:00 +9°C° 0 mm 2 m/s 761 mmHg 92%
04:00 +9°C° 0 mm 2 m/s 761 mmHg 91%
05:00 +9°C° 0 mm 2 m/s 761 mmHg 90%
06:00 +12°C° 0 mm 2 m/s 761 mmHg 82%
07:00 +14°C° 0 mm 2 m/s 761 mmHg 73%
08:00 +16°C° 0 mm 2 m/s 761 mmHg 65%
09:00 +17°C° 0 mm 3 m/s 761 mmHg 59%
10:00 +18°C° 0 mm 3 m/s 761 mmHg 54%
11:00 +20°C° 0 mm 3 m/s 761 mmHg 48%
12:00 +20°C° 0 mm 3 m/s 761 mmHg 46%
13:00 +21°C° 0 mm 3 m/s 760 mmHg 45%
14:00 +22°C° 0 mm 3 m/s 760 mmHg 43%
15:00 +22°C° 0 mm 3 m/s 760 mmHg 46%
16:00 +23°C° 0 mm 2 m/s 760 mmHg 49%
17:00 +23°C° 0 mm 2 m/s 760 mmHg 52%
18:00 +20°C° 0 mm 2 m/s 760 mmHg 61%
19:00 +18°C° 0 mm 2 m/s 760 mmHg 69%
20:00 +16°C° 0 mm 2 m/s 760 mmHg 78%
21:00 +15°C° 0 mm 2 m/s 760 mmHg 82%
22:00 +15°C° 0 mm 2 m/s 760 mmHg 86%
23:00 +14°C° 0 mm 2 m/s 760 mmHg 90%

13 Mai, Joi

Timp Temperatura Precipitaţii Vânt Presiune Umiditate
00:00 +14°C° 0 mm 2 m/s 760 mmHg 92%
01:00 +13°C° 0 mm 2 m/s 760 mmHg 93%
02:00 +13°C° 0 mm 2 m/s 760 mmHg 95%
03:00 +13°C° 0 mm 2 m/s 760 mmHg 94%
04:00 +13°C° 0 mm 2 m/s 759 mmHg 94%
05:00 +13°C° 0 mm 2 m/s 759 mmHg 93%
06:00 +14°C° 0 mm 2 m/s 759 mmHg 89%
07:00 +14°C° 0 mm 3 m/s 759 mmHg 86%
08:00 +16°C° 0 mm 3 m/s 759 mmHg 82%
09:00 +17°C° 0 mm 3 m/s 759 mmHg 78%
10:00 +18°C° 0 mm 3 m/s 758 mmHg 74%
11:00 +19°C° 0 mm 4 m/s 758 mmHg 71%
12:00 +19°C° 0.5 mm 4 m/s 757 mmHg 73%
13:00 +19°C° 0.5 mm 3 m/s 757 mmHg 75%
14:00 +19°C° 0.5 mm 3 m/s 757 mmHg 77%
15:00 +19°C° 0.4 mm 4 m/s 756 mmHg 77%
16:00 +19°C° 0.4 mm 4 m/s 756 mmHg 77%
17:00 +19°C° 0.4 mm 4 m/s 756 mmHg 77%
18:00 +18°C° 1.1 mm 3 m/s 756 mmHg 83%
19:00 +16°C° 1.1 mm 3 m/s 756 mmHg 89%
20:00 +15°C° 1.1 mm 2 m/s 756 mmHg 94%
21:00 +15°C° 0.5 mm 2 m/s 756 mmHg 95%
22:00 +14°C° 0.5 mm 2 m/s 756 mmHg 96%
23:00 +14°C° 0.5 mm 2 m/s 756 mmHg 97%
Arată mai mult

Formular de consimțământ

Meteoprog și furnizorii noștri de servicii pot stoca și accesa date personale, precum cookies, identificatori de dispozitiv sau alte tehnologii similare pe dispozitivul dumneavoastră și procesa astfel de date pentru a personaliza conținutul și reclamele, dar și pentru a oferi caracteristici de social media și pentru a analiza traficul.

  • Stocarea și/sau accesarea informațiilor pe dispozitivul dumneavoastră

    Cookies, identificatori de dispozitiv sau alte informații pot fi stocate sau accesate pe dispozitiv în scopurile indicate mai sus.

  • Reclame și conținut personalizat, evaluarea reclamelor și a conținutului, informații despre audiențe și dezvoltarea produselor

    Reclamele și conținutul pot fi personalizate pe baza unui profil. Pot fi adăugate date suplimentare pentru a personaliza mai bine reclamele și conținutul. Performanța reclamelor și conținutului poate fi măsurată. Pot fi obținute informații despre utilizatorii care au văzut reclamele și conținutul. Aceste date pot fi utilizate pentru a dezvolta sau îmbunătăți experiența utilizatorilor, sistemele și software-ul.

Dând clic pe ‘Sunt de acord’, permiteți utilizarea cookie-urilor menționate, a identificatorilor de dispozitiv, balizelor web sau altor tehnologii similare. Setările pot fi modificate din browser-ul dispozitivului dumneavoastră.

În anumite scopuri, interesele legitime pot prima asupra consimțământului. Puteți citi mai multe informații în acest sens în Politica privind Confidențialitatea Datelor și Cookie.